Regional Weather Roundup
Issued by NWS Boston, MA

Current Version | Previous Version | Text Only | Print | Product List | Glossary Off
Versions: 1 2 3 4 5 6 7 8 9 10 11 12 13 14 15 16 17 18 19 20 21 22 23 24 25 26 27 28 29 30 31 32 33 34 35 36 37 38 39 40 41 42 43 44 45 46 47 48 49 50
000 ASUS41 KBOX 210110 RWRBOX REGIONAL WEATHER ROUNDUP NATIONAL WEATHER SERVICE BOSTON/NORTON MA 900 PM EDT SAT OCT 20 2018 NOTE: "FAIR" INDICATES FEW OR NO CLOUDS BELOW 12,000 FEET WITH NO SIGNIFICANT WEATHER AND/OR OBSTRUCTIONS TO VISIBILITY. MAZALL-210200- EASTERN MASSACHUSETTS CITY SKY/WX TMP DP RH WIND PRES REMARKS BOSTON FAIR 54 43 66 SW10 29.57F BEVERLY FAIR 52 42 69 W6 29.56S LAWRENCE FAIR 52 43 71 SW6 29.58S BEDFORD FAIR 47 41 80 CALM 29.57S BLUE HILL N/A 48 42 80 W10 29.57S NORWOOD FAIR 45 42 89 CALM 29.58S MARSHFIELD FAIR 48 46 93 CALM 29.58S PLYMOUTH MOCLDY 49 46 90 CALM 29.59S TAUNTON CLOUDY 48 45 89 CALM 29.59S NEW BEDFORD FAIR 47 46 97 CALM 29.59S $$ MAZALL-210200- CAPE COD AND THE ISLANDS CITY SKY/WX TMP DP RH WIND PRES REMARKS FALMOUTH NOT AVBL HYANNIS FAIR 50 48 93 W6 29.57F CHATHAM FAIR 54 51 90 CALM 29.59F PROVINCETOWN FAIR 53 48 83 W5 29.58S NANTUCKET FAIR 57 52 83 W9 29.59F MARTHAS VNYRD FAIR 54 52 93 W5 29.59F $$ MAZALL-210200- CENTRAL AND WESTERN MASSACHUSETTS CITY SKY/WX TMP DP RH WIND PRES REMARKS WORCESTER FAIR 45 42 89 W8 29.59S FITCHBURG FAIR 46 41 82 CALM 29.59R ORANGE CLOUDY 46 42 86 CALM 29.60S SPRINGFIELD MOCLDY 44 42 93 CALM 29.58S WESTFIELD CLOUDY 45 45 100 CALM 29.59S NORTH ADAMS LGT RAIN 49 42 77 W9 29.61R PITTSFIELD LGT RAIN 46 40 79 NW7 29.61R $$ RIZALL-210200- RHODE ISLAND CITY SKY/WX TMP DP RH WIND PRES REMARKS PROVIDENCE FAIR 52 43 71 W6 29.60S NEWPORT MOCLDY 52 46 80 CALM 29.60S BLOCK ISLAND MOCLDY 57 48 72 NW5 29.61S SMITHFIELD FAIR 46 43 89 CALM 29.60 WESTERLY FAIR 52 48 86 CALM 29.61S $$ CTZALL-210200- CONNECTICUT CITY SKY/WX TMP DP RH WIND PRES REMARKS BRADLEY INTL MOCLDY 48 44 86 SW6 29.60S HARTFORD CLOUDY 50 46 86 CALM 29.60S BRIDGEPORT FAIR 52 44 74 CALM 29.61S DANBURY FAIR 45 43 93 SW3 29.63R GROTON FAIR 49 45 86 N3 29.59F NEW HAVEN FAIR 49 44 83 CALM 29.61R CHESTER FAIR 46 45 93 NW5 29.60S MERIDEN FAIR 44 42 93 CALM 29.60S WILLIMANTIC FAIR 44 43 96 CALM 29.60F OXFORD MOCLDY 49 41 74 CALM 29.61S $$ MEZ002-015-021-024-NHZ003-005-008-011-012-014-VTZ005-008-210200- NORTHERN NEW ENGLAND CITY SKY/WX TMP DP RH WIND PRES REMARKS PORTLAND ME FAIR 50 37 61 SW6 29.54R BANGOR ME FAIR 44 39 82 CALM 29.52R CONCORD NH FAIR 46 37 71 SW6 29.55S MANCHESTER NH FAIR 50 41 71 S3 29.55S NASHUA NH FAIR 47 43 86 CALM 29.57S PORTSMOUTH NH PTCLDY 51 41 70 SW5 29.53F JAFFREY NH FAIR 41 40 96 CALM 29.58S KEENE NH CLOUDY 43 40 89 CALM 29.58S BURLINGTON VT CLOUDY 51 36 56 N12 29.59R MT. WASHINGTON MOCLDY 25 21 86 W43 N/A WCI 5 $$ NYZ052-076-210200- EASTERN NEW YORK CITY SKY/WX TMP DP RH WIND PRES REMARKS ALBANY CLOUDY 48 43 82 SW6 29.62F NEW YORK CITY FAIR 62 39 42 W12 29.61S $$ ANZALL-210200- MARINE OBSERVATIONS STATION/POSITION TIME TEMP WIND PRES VSBY WAVE AIR SEA DIR/SP/G HT/PER (UTC) (F) (DEG/KT/KT) (MB) (MI) (FT/S) BOSTON BUOY 0050 57 57 220/ 12/ 14 1000.6S 1/ 3 BUZZARDS BAY 0000 60 270/ 15/ 16 1002.6R NANTUCKET SOUND 0050 59 60 260/ 10/ 14 1001.7F 1/ 2 MASS BAY-STELLWA 0004 56 55 260/ 10/ 12 999.6S 1 7/8 1/ 5 ISLE OF SHOALS 0000 56 240/ 13/ 14 1000.1R S OF BLOCK IS 0043 63 N/A 8/ 9 $$ ......................KEY......................... SKY/WX - SKY CONDITION/PRESENT WEATHER TMP - TEMPERATURE IN FAHRENHEIT DWPT - DEWPOINT IN FAHRENHEIT RH - RELATIVE HUMIDITY IN PERCENT WIND - DIRECTION AND SPEED IN MPH PRES - MEAN SEA LEVEL PRESSURE IN INCHES OF HG WCI - WIND CHILL INDEX VSB - VISIBILITY IN MILES HX - HEAT INDEX TC - TEMPERATURE IN CELSIUS VRB - VARIABLE WIND DIRECTION N/A - NOT AVAILABLE

USA.gov is the U.S. government's official web portal to all federal, state and local government web resources and services.